M I D A S
Marine Information and Data Acquisition System
Tripno 592 of the Zeeleeuw from 2003-09-17 06:21:40 to 2003-09-17 11:50:16
Back to CruiseResearch ActivitiesStationsMapUnderway DataData graphs

EquipmentUnitsComments
TimeDGPSUTC
LatitudeDGPSDM.mWGS84
LongitudeDGPSDM.mWGS84
SpeedMeteo Stationm/sRelative wind speed
DirectionMeteo StationdegRelative wind direction
TemperatureMeteo Stationdeg CelciusAir temperature
PressureMeteo StationPaAtmospheric pressure
HumidityMeteo Station%Relative humidity
Missing or incorrect values are displayed as -999
Metereological data collected by the RV Zeeleeuw from 2003-09-17 06:21:40 to 2003-09-17 11:50:16
                                                                                    Next 1000 lines
Time Latitude Longitude Speed Direction Temperature Pressure Humidity
2003-09-17 06:21:50 51°13.75 2°55.7 0.2 288 14.1 102260 82
2003-09-17 06:21:54 51°13.76 2°55.7 0.2 287 14.1 102260 82
2003-09-17 06:22:00 51°13.77 2°55.69 0.2 287 14.1 102260 82
2003-09-17 06:22:04 51°13.77 2°55.68 0.9 335 14.1 102260 82
2003-09-17 06:22:10 51°13.78 2°55.67 0.8 327 14.1 102260 82
2003-09-17 06:22:14 51°13.79 2°55.67 1.5 333 14.1 102260 82
2003-09-17 06:22:20 51°13.8 2°55.66 1.5 346 14.1 102260 82
2003-09-17 06:22:24 51°13.8 2°55.65 2.1 317 14.2 102260 82
2003-09-17 06:22:30 51°13.81 2°55.65 1.6 314 14.2 102260 82
2003-09-17 06:22:34 51°13.82 2°55.64 1.1 323 14.2 102260 82
2003-09-17 06:22:40 51°13.83 2°55.63 1.1 336 14.2 102260 82
2003-09-17 06:22:46 51°13.84 2°55.62 1.3 346 14.2 102270 82
2003-09-17 06:22:50 51°13.85 2°55.62 1.1 355 14.2 102270 82
2003-09-17 06:22:54 51°13.85 2°55.61 1.5 357 14.2 102270 82
2003-09-17 06:22:58 51°13.86 2°55.61 1.3 357 14.2 102270 82
2003-09-17 06:23:04 51°13.87 2°55.6 1 355 14.2 102260 82
2003-09-17 06:23:10 51°13.88 2°55.59 0.9 355 14.2 102260 82
2003-09-17 06:23:14 51°13.89 2°55.58 1.4 4 14.2 102260 82
2003-09-17 06:23:20 51°13.9 2°55.57 1.6 354 14.2 102260 82
2003-09-17 06:23:24 51°13.91 2°55.57 0.9 2 14.2 102260 82
2003-09-17 06:23:30 51°13.92 2°55.56 1.4 18 14.2 102260 82
2003-09-17 06:23:34 51°13.93 2°55.55 1 354 14.2 102260 82
2003-09-17 06:23:38 51°13.94 2°55.55 1 27 14.2 102260 82
2003-09-17 06:23:44 51°13.95 2°55.54 0.9 8 14.2 102260 82
2003-09-17 06:23:50 51°13.96 2°55.53 1.2 3 14.2 102260 82
2003-09-17 06:23:54 51°13.97 2°55.53 1.4 2 14.2 102260 82
2003-09-17 06:24:00 51°13.98 2°55.52 1.2 316 14.2 102260 82
2003-09-17 06:24:04 51°13.99 2°55.52 1.2 355 14.4 102270 82
2003-09-17 06:24:10 51°14 2°55.51 1 352 14.4 102270 82
2003-09-17 06:24:14 51°14 2°55.5 0.7 354 14.3 102260 82
2003-09-17 06:24:20 51°14.02 2°55.49 0.5 6 14.3 102260 82
2003-09-17 06:24:24 51°14.03 2°55.49 0.5 27 14.3 102260 82
2003-09-17 06:24:30 51°14.04 2°55.48 0.9 322 14.3 102260 82
2003-09-17 06:24:34 51°14.05 2°55.47 1 359 14.3 102260 82
2003-09-17 06:24:38 51°14.06 2°55.47 1 5 14.3 102260 82
2003-09-17 06:24:44 51°14.07 2°55.46 1 355 14.4 102260 82
2003-09-17 06:24:50 51°14.08 2°55.45 1.3 6 14.4 102260 82
2003-09-17 06:24:54 51°14.09 2°55.44 1 5 14.4 102260 82
2003-09-17 06:25:00 51°14.1 2°55.44 1 13 14.4 102260 82
2003-09-17 06:25:04 51°14.11 2°55.43 1.4 15 14.4 102260 82
2003-09-17 06:25:10 51°14.12 2°55.42 1.4 3 14.4 102260 82
2003-09-17 06:25:14 51°14.13 2°55.41 1.6 345 14.4 102260 82
2003-09-17 06:25:20 51°14.15 2°55.4 1.6 342 14.4 102260 82
2003-09-17 06:25:24 51°14.16 2°55.39 1.7 330 14.4 102260 82
2003-09-17 06:25:30 51°14.17 2°55.38 2.4 342 14.4 102260 82
2003-09-17 06:25:34 51°14.18 2°55.37 3.1 339 14.4 102260 82
2003-09-17 06:25:38 51°14.19 2°55.36 2.5 337 14.4 102260 82
2003-09-17 06:25:44 51°14.2 2°55.35 2.5 334 14.5 102260 82
2003-09-17 06:25:50 51°14.22 2°55.33 3.3 332 14.5 102260 82
2003-09-17 06:25:54 51°14.23 2°55.32 3.1 337 14.5 102260 82
2003-09-17 06:26:00 51°14.24 2°55.3 2.8 342 14.5 102260 82
2003-09-17 06:26:04 51°14.25 2°55.29 3 331 14.5 102260 82
2003-09-17 06:26:10 51°14.26 2°55.27 3.5 346 14.5 102260 82
2003-09-17 06:26:14 51°14.27 2°55.25 3.8 318 14.5 102260 82
2003-09-17 06:26:18 51°14.28 2°55.24 4.2 324 14.5 102260 82
2003-09-17 06:26:24 51°14.29 2°55.22 3.9 342 14.6 102260 82
2003-09-17 06:26:30 51°14.3 2°55.2 4.8 332 14.6 102260 82
2003-09-17 06:26:34 51°14.31 2°55.18 4.4 320 14.6 102260 82
2003-09-17 06:26:40 51°14.32 2°55.16 3.5 315 14.6 102260 82
2003-09-17 06:26:44 51°14.33 2°55.14 4.8 332 14.6 102260 82
2003-09-17 06:26:50 51°14.34 2°55.12 4 326 14.6 102260 82
2003-09-17 06:26:54 51°14.35 2°55.1 3.9 301 14.6 102250 82
2003-09-17 06:26:58 51°14.36 2°55.09 4.1 29 14.6 102250 82
2003-09-17 06:27:04 51°14.37 2°55.06 4 308 14.6 102250 82
2003-09-17 06:27:10 51°14.38 2°55.04 5.2 318 14.6 102250 82
2003-09-17 06:27:14 51°14.38 2°55.02 4.5 324 14.7 102260 82
2003-09-17 06:27:20 51°14.39 2°55 4.7 316 14.7 102260 82
2003-09-17 06:27:24 51°14.4 2°54.98 4.9 42 14.7 102250 81
2003-09-17 06:27:30 51°14.41 2°54.95 6.8 312 14.7 102250 81
2003-09-17 06:27:34 51°14.42 2°54.94 6.2 312 14.7 102250 81
2003-09-17 06:27:40 51°14.43 2°54.91 6.7 311 14.7 102250 81
2003-09-17 06:27:44 51°14.44 2°54.89 7.7 306 14.8 102250 81
2003-09-17 06:27:50 51°14.45 2°54.86 7 311 14.8 102250 81
2003-09-17 06:27:54 51°14.46 2°54.84 8 43 14.8 102250 81
2003-09-17 06:27:58 51°14.46 2°54.82 7.4 316 14.8 102250 81
2003-09-17 06:28:04 51°14.47 2°54.79 7.8 320 14.9 102240 81
2003-09-17 06:28:10 51°14.47 2°54.76 8.3 321 14.9 102240 81
2003-09-17 06:28:14 51°14.47 2°54.74 7.9 322 14.9 102240 81
2003-09-17 06:28:20 51°14.47 2°54.71 8.9 326 14.9 102240 81
2003-09-17 06:28:24 51°14.48 2°54.68 8.6 329 15 102240 80
2003-09-17 06:28:30 51°14.48 2°54.65 9 328 15 102240 80
2003-09-17 06:28:34 51°14.47 2°54.63 10.6 331 15.1 102240 80
2003-09-17 06:28:40 51°14.47 2°54.6 10.4 333 15.1 102240 80
2003-09-17 06:28:44 51°14.47 2°54.58 10.8 334 15.1 102240 80
2003-09-17 06:28:50 51°14.46 2°54.54 11.5 338 15.1 102240 80
2003-09-17 06:28:54 51°14.45 2°54.52 11.5 338 15.2 102230 80
2003-09-17 06:29:00 51°14.45 2°54.49 11.5 337 15.2 102230 80
2003-09-17 06:29:04 51°14.44 2°54.47 10.9 339 15.3 102230 79
2003-09-17 06:29:10 51°14.43 2°54.44 11.6 337 15.3 102230 79
2003-09-17 06:29:14 51°14.42 2°54.42 11.2 339 15.3 102220 79
2003-09-17 06:29:20 51°14.41 2°54.39 10.9 336 15.3 102220 79
2003-09-17 06:29:24 51°14.41 2°54.37 10.2 336 15.3 102230 79
2003-09-17 06:29:30 51°14.4 2°54.35 10.2 339 15.3 102230 79
2003-09-17 06:29:34 51°14.39 2°54.33 10.4 342 15.4 102230 78
2003-09-17 06:29:40 51°14.38 2°54.3 10.1 341 15.4 102230 78
2003-09-17 06:29:44 51°14.37 2°54.28 10.6 341 15.4 102220 78
2003-09-17 06:29:50 51°14.36 2°54.25 10.6 337 15.4 102220 78
2003-09-17 06:29:54 51°14.36 2°54.23 10.3 337 15.5 102230 78
2003-09-17 06:30:00 51°14.35 2°54.19 10 336 15.5 102230 78
2003-09-17 06:30:04 51°14.34 2°54.17 10.8 340 15.5 102230 78
2003-09-17 06:30:10 51°14.33 2°54.14 10.6 337 15.5 102230 78
2003-09-17 06:30:14 51°14.32 2°54.12 10.3 338 15.5 102230 77
2003-09-17 06:30:20 51°14.31 2°54.09 10.9 338 15.5 102230 77
2003-09-17 06:30:24 51°14.31 2°54.07 10.3 338 15.6 102230 77
2003-09-17 06:30:30 51°14.3 2°54.04 11.3 337 15.6 102230 77
2003-09-17 06:30:34 51°14.29 2°54.02 10.7 336 15.6 102230 77
2003-09-17 06:30:40 51°14.28 2°53.99 10.6 336 15.6 102230 77
2003-09-17 06:30:44 51°14.27 2°53.97 10.8 337 15.6 102230 77
2003-09-17 06:30:50 51°14.26 2°53.94 10.8 334 15.6 102230 77
2003-09-17 06:30:54 51°14.25 2°53.92 10 334 15.6 102230 76
2003-09-17 06:30:58 51°14.25 2°53.9 10.9 335 15.6 102230 76
2003-09-17 06:31:06 51°14.23 2°53.86 10.1 336 15.6 102230 76
2003-09-17 06:31:10 51°14.23 2°53.84 11.7 333 15.6 102230 76
2003-09-17 06:31:14 51°14.22 2°53.81 10.4 336 15.6 102230 76
2003-09-17 06:31:20 51°14.21 2°53.78 10.3 338 15.6 102230 76
2003-09-17 06:31:26 51°14.2 2°53.75 10.6 335 15.6 102230 76
2003-09-17 06:31:30 51°14.2 2°53.73 9.9 337 15.6 102230 76
2003-09-17 06:31:34 51°14.19 2°53.71 9.7 337 15.6 102230 76
2003-09-17 06:31:40 51°14.18 2°53.68 10.9 335 15.6 102230 76
2003-09-17 06:31:44 51°14.17 2°53.66 11.3 338 15.6 102230 76
2003-09-17 06:31:50 51°14.16 2°53.63 11 336 15.6 102230 76
2003-09-17 06:31:54 51°14.16 2°53.61 11.2 339 15.6 102230 76
2003-09-17 06:31:58 51°14.15 2°53.58 10.9 335 15.6 102230 76
2003-09-17 06:32:04 51°14.14 2°53.55 11.2 335 15.6 102230 76
2003-09-17 06:32:10 51°14.13 2°53.52 10.3 336 15.6 102230 76
2003-09-17 06:32:14 51°14.12 2°53.5 11.6 340 15.6 102230 76
2003-09-17 06:32:20 51°14.11 2°53.47 10.6 339 15.6 102230 76
2003-09-17 06:32:26 51°14.1 2°53.44 10.9 340 15.7 102230 76
2003-09-17 06:32:30 51°14.09 2°53.42 11.3 338 15.7 102230 76
2003-09-17 06:32:34 51°14.09 2°53.4 11.8 335 15.7 102230 76
2003-09-17 06:32:40 51°14.08 2°53.37 10.8 337 15.7 102230 76
2003-09-17 06:32:46 51°14.07 2°53.33 10.8 339 15.7 102220 76
2003-09-17 06:32:50 51°14.06 2°53.31 11 339 15.7 102220 76
2003-09-17 06:32:54 51°14.05 2°53.29 10.5 337 15.7 102220 75
2003-09-17 06:33:00 51°14.04 2°53.26 11.8 336 15.7 102220 75
2003-09-17 06:33:04 51°14.04 2°53.24 11 336 15.7 102220 75
2003-09-17 06:33:10 51°14.03 2°53.21 9.5 337 15.7 102220 75
2003-09-17 06:33:14 51°14.02 2°53.19 10.2 339 15.7 102220 75
2003-09-17 06:33:20 51°14.01 2°53.16 11.5 335 15.7 102220 75
2003-09-17 06:33:24 51°14 2°53.13 10.7 335 15.7 102220 75
2003-09-17 06:33:30 51°13.99 2°53.1 11.3 338 15.7 102220 75
2003-09-17 06:33:34 51°13.99 2°53.08 11 336 15.7 102230 75
2003-09-17 06:33:40 51°13.98 2°53.05 11.5 336 15.7 102230 75
2003-09-17 06:33:46 51°13.96 2°53.02 10.9 336 15.7 102230 75
2003-09-17 06:33:50 51°13.96 2°53 11 337 15.7 102230 75
2003-09-17 06:33:54 51°13.95 2°52.98 10.4 340 15.7 102220 75
2003-09-17 06:34:00 51°13.94 2°52.94 10 341 15.7 102220 75
2003-09-17 06:34:04 51°13.93 2°52.92 11.3 340 15.7 102230 75
2003-09-17 06:34:10 51°13.92 2°52.89 10.9 340 15.7 102230 75
2003-09-17 06:34:14 51°13.92 2°52.87 10 338 15.7 102220 75
2003-09-17 06:34:18 51°13.91 2°52.85 10.8 338 15.7 102220 75
2003-09-17 06:34:24 51°13.9 2°52.82 10.6 339 15.7 102220 75
2003-09-17 06:34:30 51°13.89 2°52.78 11.1 337 15.7 102220 75
2003-09-17 06:34:34 51°13.88 2°52.76 10.8 340 15.7 102230 75
2003-09-17 06:34:40 51°13.87 2°52.73 10.7 338 15.7 102230 75
2003-09-17 06:34:44 51°13.86 2°52.71 9.6 340 15.7 102220 75
2003-09-17 06:34:50 51°13.85 2°52.68 11.2 339 15.7 102220 75
2003-09-17 06:34:54 51°13.85 2°52.66 10.8 337 15.7 102230 75
2003-09-17 06:35:00 51°13.83 2°52.63 11.2 339 15.7 102230 75
2003-09-17 06:35:06 51°13.82 2°52.59 10.5 339 15.7 102220 75
2003-09-17 06:35:10 51°13.82 2°52.57 11.1 335 15.7 102220 75
2003-09-17 06:35:14 51°13.81 2°52.55 10.5 339 15.7 102230 75
2003-09-17 06:35:20 51°13.8 2°52.52 10.5 338 15.7 102230 75
2003-09-17 06:35:24 51°13.79 2°52.5 10.9 338 15.7 102220 75
2003-09-17 06:35:30 51°13.78 2°52.47 10.4 339 15.7 102220 75
2003-09-17 06:35:34 51°13.77 2°52.45 10.4 340 15.7 102220 75
2003-09-17 06:35:38 51°13.77 2°52.42 10.7 337 15.7 102220 75
2003-09-17 06:35:44 51°13.76 2°52.39 10.9 338 15.7 102230 75
2003-09-17 06:35:50 51°13.75 2°52.36 10.6 338 15.7 102230 75
2003-09-17 06:35:54 51°13.74 2°52.34 10.4 338 15.7 102220 75
2003-09-17 06:36:00 51°13.73 2°52.31 10.4 340 15.7 102220 75
2003-09-17 06:36:04 51°13.72 2°52.29 10.2 339 15.7 102220 75
2003-09-17 06:36:10 51°13.71 2°52.26 9.5 336 15.7 102220 75
2003-09-17 06:36:14 51°13.7 2°52.23 9.7 340 15.6 102220 75
2003-09-17 06:36:20 51°13.69 2°52.2 10.1 338 15.6 102220 75
2003-09-17 06:36:24 51°13.69 2°52.18 10.3 340 15.6 102230 75
2003-09-17 06:36:30 51°13.67 2°52.15 10.7 340 15.6 102230 75
2003-09-17 06:36:34 51°13.67 2°52.13 10.2 337 15.6 102230 75
2003-09-17 06:36:40 51°13.66 2°52.1 10.5 339 15.6 102230 75
2003-09-17 06:36:44 51°13.65 2°52.08 10.3 336 15.6 102230 76
2003-09-17 06:36:50 51°13.64 2°52.04 10.7 338 15.6 102230 76
2003-09-17 06:36:54 51°13.63 2°52.02 9.9 340 15.6 102220 76
2003-09-17 06:37:00 51°13.62 2°51.99 11.1 338 15.6 102220 76
2003-09-17 06:37:04 51°13.61 2°51.97 10.7 342 15.6 102230 76
2003-09-17 06:37:10 51°13.6 2°51.94 10.2 338 15.6 102230 76
2003-09-17 06:37:14 51°13.6 2°51.92 10.1 339 15.5 102230 76
2003-09-17 06:37:20 51°13.59 2°51.88 10 338 15.5 102230 76
2003-09-17 06:37:26 51°13.58 2°51.85 10.7 337 15.5 102230 76
2003-09-17 06:37:30 51°13.57 2°51.83 9.8 343 15.5 102230 76
2003-09-17 06:37:34 51°13.56 2°51.81 10.2 342 15.5 102230 76
2003-09-17 06:37:40 51°13.55 2°51.78 10.1 341 15.5 102230 76
2003-09-17 06:37:44 51°13.54 2°51.76 9.5 343 15.5 102230 76
2003-09-17 06:37:50 51°13.53 2°51.72 10.4 341 15.5 102230 76
2003-09-17 06:37:54 51°13.53 2°51.7 9.9 339 15.5 102230 76
2003-09-17 06:38:00 51°13.51 2°51.67 10.5 340 15.5 102230 76
2003-09-17 06:38:04 51°13.51 2°51.65 9.3 340 15.5 102230 76
2003-09-17 06:38:10 51°13.5 2°51.62 10.3 340 15.5 102230 76
2003-09-17 06:38:14 51°13.49 2°51.6 9.7 339 15.4 102230 76
2003-09-17 06:38:18 51°13.48 2°51.58 9.5 339 15.4 102230 76
2003-09-17 06:38:24 51°13.47 2°51.54 9.8 337 15.4 102230 76
2003-09-17 06:38:30 51°13.46 2°51.51 9.8 338 15.4 102230 76
2003-09-17 06:38:34 51°13.46 2°51.49 9.3 342 15.4 102230 76
2003-09-17 06:38:40 51°13.45 2°51.46 9.9 340 15.4 102230 76
2003-09-17 06:38:44 51°13.44 2°51.44 10.1 340 15.3 102230 76
2003-09-17 06:38:50 51°13.43 2°51.41 9.3 342 15.3 102230 76
2003-09-17 06:38:54 51°13.42 2°51.38 9 339 15.3 102230 76
2003-09-17 06:39:00 51°13.41 2°51.35 9.1 341 15.3 102230 76
2003-09-17 06:39:04 51°13.4 2°51.33 9.1 338 15.2 102230 77
2003-09-17 06:39:10 51°13.39 2°51.3 9.2 338 15.2 102230 77
2003-09-17 06:39:14 51°13.39 2°51.28 9.2 341 15.2 102230 77
2003-09-17 06:39:18 51°13.38 2°51.26 8.8 342 15.2 102230 77
2003-09-17 06:39:26 51°13.37 2°51.21 9.3 343 15.1 102230 77
2003-09-17 06:39:30 51°13.36 2°51.19 9.2 344 15.1 102230 77
2003-09-17 06:39:34 51°13.35 2°51.17 9.9 340 15.1 102230 77
2003-09-17 06:39:40 51°13.34 2°51.14 10.1 340 15.1 102230 77
2003-09-17 06:39:46 51°13.33 2°51.11 9.1 341 15.1 102230 78
2003-09-17 06:39:50 51°13.32 2°51.09 9.6 341 15.1 102230 78
2003-09-17 06:39:54 51°13.32 2°51.07 9.5 339 15.1 102230 78
2003-09-17 06:40:00 51°13.31 2°51.03 10.1 337 15.1 102230 78
2003-09-17 06:40:04 51°13.3 2°51.01 9.1 339 15.1 102220 78
2003-09-17 06:40:10 51°13.29 2°50.98 9.6 343 15.1 102220 78
2003-09-17 06:40:14 51°13.28 2°50.96 9.8 338 15.1 102230 78
2003-09-17 06:40:20 51°13.27 2°50.93 9.3 343 15.1 102230 78
2003-09-17 06:40:24 51°13.26 2°50.91 9.4 343 15 102230 78
2003-09-17 06:40:30 51°13.25 2°50.88 9.4 342 15 102230 78
2003-09-17 06:40:34 51°13.25 2°50.85 9.2 347 15 102230 78
2003-09-17 06:40:38 51°13.24 2°50.83 9.8 345 15 102230 78
2003-09-17 06:40:44 51°13.23 2°50.8 9.2 347 15 102230 79
2003-09-17 06:40:50 51°13.22 2°50.77 9.4 342 15 102230 79
2003-09-17 06:40:54 51°13.21 2°50.75 9.4 343 15 102230 79
2003-09-17 06:41:00 51°13.2 2°50.72 9.1 348 15 102230 79
2003-09-17 06:41:04 51°13.19 2°50.7 9.6 347 14.9 102230 78
2003-09-17 06:41:10 51°13.18 2°50.66 9.6 342 14.9 102230 78
2003-09-17 06:41:14 51°13.18 2°50.64 8.5 346 14.9 102230 78
2003-09-17 06:41:18 51°13.17 2°50.62 8.9 346 14.9 102230 78
2003-09-17 06:41:26 51°13.15 2°50.58 9.1 340 14.9 102230 78
2003-09-17 06:41:30 51°13.15 2°50.56 9.1 346 14.9 102230 78
2003-09-17 06:41:34 51°13.14 2°50.54 9.2 345 14.8 102230 78
2003-09-17 06:41:38 51°13.13 2°50.52 9.2 348 14.8 102230 78
2003-09-17 06:41:44 51°13.12 2°50.48 8.6 346 14.8 102230 79
2003-09-17 06:41:50 51°13.11 2°50.45 8.8 348 14.8 102230 79
2003-09-17 06:41:54 51°13.1 2°50.43 9 346 14.8 102230 79
2003-09-17 06:42:00 51°13.09 2°50.4 9 346 14.8 102230 79
2003-09-17 06:42:06 51°13.08 2°50.37 9.2 347 14.8 102240 79
2003-09-17 06:42:10 51°13.08 2°50.35 9.2 347 14.8 102240 79
2003-09-17 06:42:14 51°13.07 2°50.33 9.3 347 14.7 102230 79
2003-09-17 06:42:20 51°13.06 2°50.29 8.8 348 14.7 102230 79
2003-09-17 06:42:24 51°13.05 2°50.27 9.3 349 14.7 102230 80
2003-09-17 06:42:30 51°13.04 2°50.24 9.2 344 14.7 102230 80
2003-09-17 06:42:34 51°13.03 2°50.22 8.7 349 14.7 102230 80
2003-09-17 06:42:40 51°13.02 2°50.19 8.8 346 14.7 102230 80
2003-09-17 06:42:44 51°13.02 2°50.16 9.1 348 14.7 102230 80
2003-09-17 06:42:50 51°13 2°50.13 9 348 14.7 102230 80
2003-09-17 06:42:54 51°13 2°50.11 9.2 351 14.7 102230 80
2003-09-17 06:43:00 51°12.99 2°50.08 9.6 348 14.7 102230 80
2003-09-17 06:43:04 51°12.98 2°50.06 9.5 350 14.7 102240 80
2003-09-17 06:43:10 51°12.97 2°50.03 9.1 347 14.7 102240 80
2003-09-17 06:43:14 51°12.96 2°50.01 9.2 347 14.6 102230 80
2003-09-17 06:43:20 51°12.95 2°49.98 9.5 347 14.6 102230 80
2003-09-17 06:43:24 51°12.94 2°49.96 9 347 14.7 102230 80
2003-09-17 06:43:30 51°12.93 2°49.92 9.5 345 14.7 102230 80
2003-09-17 06:43:34 51°12.92 2°49.9 9.5 350 14.6 102230 80
2003-09-17 06:43:40 51°12.91 2°49.87 9.2 350 14.6 102230 80
2003-09-17 06:43:44 51°12.91 2°49.85 8.9 349 14.6 102230 80
2003-09-17 06:43:50 51°12.9 2°49.82 9 343 14.6 102230 80
2003-09-17 06:43:54 51°12.89 2°49.8 8.8 349 14.6 102230 80
2003-09-17 06:44:00 51°12.88 2°49.77 9 349 14.6 102230 80
2003-09-17 06:44:04 51°12.87 2°49.75 9.3 345 14.5 102230 80
2003-09-17 06:44:10 51°12.86 2°49.72 9 347 14.5 102230 80
2003-09-17 06:44:14 51°12.85 2°49.69 9 345 14.5 102230 80
2003-09-17 06:44:20 51°12.84 2°49.66 8.9 350 14.5 102230 80
2003-09-17 06:44:26 51°12.83 2°49.63 8.8 349 14.5 102230 80
2003-09-17 06:44:30 51°12.82 2°49.61 9.1 348 14.5 102230 80
2003-09-17 06:44:34 51°12.81 2°49.59 9.4 349 14.4 102230 81
2003-09-17 06:44:40 51°12.8 2°49.56 8.7 348 14.4 102230 81
2003-09-17 06:44:44 51°12.8 2°49.54 9.1 342 14.4 102230 81
2003-09-17 06:44:50 51°12.79 2°49.5 9.2 347 14.4 102230 81
2003-09-17 06:44:54 51°12.78 2°49.48 8.7 346 14.4 102230 81
2003-09-17 06:45:00 51°12.77 2°49.45 8.6 348 14.4 102230 81
2003-09-17 06:45:04 51°12.76 2°49.43 8.4 348 14.4 102230 81
2003-09-17 06:45:10 51°12.75 2°49.4 9.6 349 14.4 102230 81
2003-09-17 06:45:14 51°12.74 2°49.38 9.6 346 14.4 102230 81
2003-09-17 06:45:20 51°12.73 2°49.35 9 348 14.4 102230 81
2003-09-17 06:45:24 51°12.72 2°49.32 9.1 346 14.4 102230 81
2003-09-17 06:45:30 51°12.71 2°49.29 8.8 348 14.4 102230 81
2003-09-17 06:45:34 51°12.7 2°49.27 8.7 349 14.3 102230 81
2003-09-17 06:45:40 51°12.69 2°49.24 9.3 347 14.3 102230 81
2003-09-17 06:45:44 51°12.69 2°49.22 9 350 14.3 102240 81
2003-09-17 06:45:50 51°12.68 2°49.19 9.2 345 14.3 102240 81
2003-09-17 06:45:54 51°12.67 2°49.17 8.9 348 14.3 102230 81
2003-09-17 06:46:00 51°12.66 2°49.13 8.6 348 14.3 102230 81
2003-09-17 06:46:06 51°12.65 2°49.1 8.6 354 14.3 102240 81
2003-09-17 06:46:10 51°12.64 2°49.08 9 349 14.3 102240 81
2003-09-17 06:46:14 51°12.63 2°49.06 8.1 351 14.2 102240 81
2003-09-17 06:46:20 51°12.63 2°49.02 8.2 348 14.2 102240 81
2003-09-17 06:46:24 51°12.62 2°49 8.7 350 14.2 102240 81
2003-09-17 06:46:30 51°12.61 2°48.97 8.9 348 14.2 102240 81
2003-09-17 06:46:34 51°12.6 2°48.95 8.3 349 14.2 102240 82
2003-09-17 06:46:40 51°12.59 2°48.92 8.7 348 14.2 102240 82
2003-09-17 06:46:44 51°12.59 2°48.89 8.6 349 14.2 102240 82
2003-09-17 06:46:50 51°12.58 2°48.86 8.3 351 14.2 102240 82
2003-09-17 06:46:54 51°12.57 2°48.84 8 350 14.2 102240 82
2003-09-17 06:46:58 51°12.56 2°48.82 7.2 353 14.2 102240 82
2003-09-17 06:47:06 51°12.55 2°48.77 7.7 355 14.2 102240 82
2003-09-17 06:47:10 51°12.54 2°48.75 7.5 354 14.2 102240 82
2003-09-17 06:47:14 51°12.54 2°48.73 7.7 354 14.2 102240 82
2003-09-17 06:47:20 51°12.53 2°48.7 8 351 14.2 102240 82
2003-09-17 06:47:24 51°12.52 2°48.68 7.8 354 14.2 102240 82
2003-09-17 06:47:30 51°12.51 2°48.64 7.8 352 14.2 102240 82
2003-09-17 06:47:34 51°12.5 2°48.62 7.7 350 14.2 102240 82
2003-09-17 06:47:40 51°12.49 2°48.59 7.8 350 14.2 102240 82
2003-09-17 06:47:44 51°12.49 2°48.57 7.2 351 14.2 102240 82
2003-09-17 06:47:50 51°12.48 2°48.53 7.1 354 14.2 102240 82
2003-09-17 06:47:54 51°12.47 2°48.51 7.9 356 14.2 102240 83
2003-09-17 06:47:58 51°12.46 2°48.49 7.7 352 14.2 102240 83
2003-09-17 06:48:04 51°12.45 2°48.46 8.3 348 14.3 102240 83
2003-09-17 06:48:10 51°12.44 2°48.42 8.3 354 14.3 102240 83
2003-09-17 06:48:14 51°12.44 2°48.4 8.6 348 14.3 102250 83
2003-09-17 06:48:20 51°12.43 2°48.37 8.3 348 14.3 102250 83
2003-09-17 06:48:26 51°12.42 2°48.34 8.5 346 14.3 102240 83
2003-09-17 06:48:30 51°12.41 2°48.31 8 347 14.3 102240 83
2003-09-17 06:48:34 51°12.4 2°48.29 8.2 349 14.4 102250 83
2003-09-17 06:48:40 51°12.4 2°48.26 8.2 348 14.4 102250 83
2003-09-17 06:48:44 51°12.39 2°48.24 8.3 347 14.4 102240 83
2003-09-17 06:48:50 51°12.38 2°48.21 8.6 351 14.4 102240 83
2003-09-17 06:48:54 51°12.37 2°48.18 8.3 350 14.4 102240 83
2003-09-17 06:49:00 51°12.36 2°48.15 8.1 348 14.4 102240 83
2003-09-17 06:49:04 51°12.36 2°48.13 8.5 349 14.5 102240 83
2003-09-17 06:49:10 51°12.35 2°48.1 8.2 351 14.5 102240 83
2003-09-17 06:49:14 51°12.34 2°48.07 8.5 351 14.5 102240 83
2003-09-17 06:49:20 51°12.33 2°48.04 8.8 349 14.5 102240 83
2003-09-17 06:49:24 51°12.32 2°48.02 9.1 352 14.6 102240 83
2003-09-17 06:49:30 51°12.31 2°47.99 8.9 351 14.6 102240 83
2003-09-17 06:49:34 51°12.31 2°47.96 9 351 14.6 102240 83
2003-09-17 06:49:40 51°12.3 2°47.93 9.2 349 14.6 102240 83
2003-09-17 06:49:44 51°12.29 2°47.91 9.1 349 14.6 102240 83
2003-09-17 06:49:50 51°12.28 2°47.88 8.7 348 14.6 102240 83
2003-09-17 06:49:54 51°12.27 2°47.85 9.1 352 14.6 102240 83
2003-09-17 06:50:00 51°12.27 2°47.82 9 346 14.6 102240 83
2003-09-17 06:50:04 51°12.26 2°47.8 8.8 345 14.7 102240 83
2003-09-17 06:50:10 51°12.25 2°47.76 8.6 353 14.7 102240 83
2003-09-17 06:50:14 51°12.25 2°47.74 8.8 348 14.7 102240 83
2003-09-17 06:50:20 51°12.24 2°47.71 8.5 350 14.7 102240 83
2003-09-17 06:50:24 51°12.23 2°47.69 8.5 349 14.7 102240 83
2003-09-17 06:50:30 51°12.22 2°47.65 8.7 350 14.7 102240 83
2003-09-17 06:50:34 51°12.22 2°47.63 8.3 348 14.8 102240 83
2003-09-17 06:50:38 51°12.21 2°47.61 8.5 351 14.8 102240 83
2003-09-17 06:50:48 51°12.19 2°47.55 8.8 349 14.8 102240 82
2003-09-17 06:50:52 51°12.19 2°47.53 8.5 346 14.8 102240 82
2003-09-17 06:50:58 51°12.18 2°47.5 9.1 347 14.8 102240 82
2003-09-17 06:51:02 51°12.17 2°47.48 8.6 346 14.8 102240 82
2003-09-17 06:51:08 51°12.16 2°47.44 8.5 347 14.8 102240 82
2003-09-17 06:51:14 51°12.16 2°47.41 8.2 346 14.8 102240 82
2003-09-17 06:51:18 51°12.15 2°47.39 9.4 345 14.8 102240 82
2003-09-17 06:51:24 51°12.14 2°47.35 8.9 343 14.8 102240 82
2003-09-17 06:51:28 51°12.13 2°47.33 9.5 344 14.8 102240 82
2003-09-17 06:51:32 51°12.13 2°47.31 8.8 344 14.8 102240 82
2003-09-17 06:51:38 51°12.12 2°47.28 9.1 342 14.8 102240 82
2003-09-17 06:51:42 51°12.11 2°47.25 8.7 341 14.8 102240 82
2003-09-17 06:51:48 51°12.11 2°47.22 8.7 342 14.8 102240 82
2003-09-17 06:51:54 51°12.1 2°47.19 8.7 340 14.8 102240 82
2003-09-17 06:51:58 51°12.09 2°47.16 8.7 344 14.8 102240 82
2003-09-17 06:52:02 51°12.08 2°47.14 8.6 341 14.8 102240 82
2003-09-17 06:52:08 51°12.07 2°47.11 9.1 339 14.9 102240 82
2003-09-17 06:52:12 51°12.07 2°47.09 8.5 342 14.9 102240 82
2003-09-17 06:52:18 51°12.06 2°47.05 9.3 339 14.9 102230 81
2003-09-17 06:52:22 51°12.05 2°47.03 8.9 339 14.9 102230 81
2003-09-17 06:52:28 51°12.05 2°47 8.3 340 14.9 102230 81
2003-09-17 06:52:34 51°12.04 2°46.97 8.9 340 14.9 102230 81
2003-09-17 06:52:38 51°12.03 2°46.94 8.8 342 14.9 102230 81
2003-09-17 06:52:42 51°12.02 2°46.92 8.9 338 14.9 102230 81
2003-09-17 06:52:48 51°12.02 2°46.89 8.7 341 14.9 102230 81
2003-09-17 06:52:52 51°12.01 2°46.87 9.3 337 14.9 102230 81
2003-09-17 06:52:58 51°12 2°46.83 9.8 339 14.9 102240 81
2003-09-17 06:53:02 51°11.99 2°46.81 8.8 334 14.9 102240 81
2003-09-17 06:53:08 51°11.99 2°46.78 9.2 336 14.9 102230 81
2003-09-17 06:53:14 51°11.98 2°46.74 9 337 14.9 102230 81
2003-09-17 06:53:18 51°11.97 2°46.72 9.2 334 14.9 102230 81
2003-09-17 06:53:22 51°11.96 2°46.7 9.3 337 14.9 102230 81
2003-09-17 06:53:28 51°11.96 2°46.67 8.5 335 14.9 102230 81
2003-09-17 06:53:34 51°11.95 2°46.63 8.7 332 14.9 102230 81
2003-09-17 06:53:38 51°11.94 2°46.61 9.1 334 14.8 102230 81
2003-09-17 06:53:42 51°11.93 2°46.59 8.7 334 14.8 102230 81
2003-09-17 06:53:48 51°11.93 2°46.56 9 334 14.8 102230 81
2003-09-17 06:53:52 51°11.92 2°46.54 9 333 14.8 102230 81
2003-09-17 06:53:58 51°11.91 2°46.5 8.8 332 14.8 102230 81
2003-09-17 06:54:02 51°11.9 2°46.48 8.8 334 14.8 102230 81
2003-09-17 06:54:08 51°11.9 2°46.45 8.4 332 14.7 102230 81
2003-09-17 06:54:14 51°11.89 2°46.41 9.1 332 14.7 102230 81
2003-09-17 06:54:18 51°11.88 2°46.39 8.6 334 14.7 102230 80
2003-09-17 06:54:22 51°11.88 2°46.37 9.2 332 14.7 102230 80
2003-09-17 06:54:28 51°11.87 2°46.34 9.4 335 14.7 102230 80
2003-09-17 06:54:32 51°11.86 2°46.31 8.1 337 14.7 102230 80
2003-09-17 06:54:38 51°11.85 2°46.28 8.5 337 14.6 102230 80
2003-09-17 06:54:42 51°11.85 2°46.26 9.2 334 14.6 102230 80
2003-09-17 06:54:48 51°11.84 2°46.23 8.6 335 14.6 102220 80
2003-09-17 06:54:54 51°11.83 2°46.19 8.8 335 14.6 102220 80
2003-09-17 06:54:58 51°11.82 2°46.17 8.9 335 14.6 102230 81
2003-09-17 06:55:02 51°11.82 2°46.15 8.7 333 14.6 102230 81
2003-09-17 06:55:08 51°11.81 2°46.11 8.2 340 14.6 102230 81
2003-09-17 06:55:14 51°11.8 2°46.08 9 337 14.6 102230 81
2003-09-17 06:55:18 51°11.79 2°46.06 8.8 339 14.6 102230 81
2003-09-17 06:55:22 51°11.79 2°46.04 8.5 339 14.6 102230 81
2003-09-17 06:55:28 51°11.78 2°46 9.2 337 14.6 102230 81
2003-09-17 06:55:34 51°11.77 2°45.97 8.6 338 14.6 102230 81
2003-09-17 06:55:38 51°11.76 2°45.95 9.3 340 14.6 102230 81
2003-09-17 06:55:42 51°11.76 2°45.93 8.6 340 14.6 102230 81
2003-09-17 06:55:48 51°11.75 2°45.89 8.7 340 14.6 102240 82
2003-09-17 06:55:54 51°11.74 2°45.86 8.7 340 14.6 102240 82
2003-09-17 06:55:58 51°11.73 2°45.84 8.4 340 14.6 102230 82
2003-09-17 06:56:02 51°11.72 2°45.82 8.5 341 14.6 102230 82
2003-09-17 06:56:08 51°11.72 2°45.78 7.9 342 14.6 102230 82
2003-09-17 06:56:14 51°11.71 2°45.75 8.2 342 14.6 102230 82
2003-09-17 06:56:18 51°11.7 2°45.73 8.3 343 14.7 102240 82
2003-09-17 06:56:22 51°11.7 2°45.7 8.3 344 14.7 102240 82
2003-09-17 06:56:28 51°11.69 2°45.67 8.4 346 14.7 102240 82
2003-09-17 06:56:34 51°11.68 2°45.64 8.5 347 14.7 102240 82
2003-09-17 06:56:38 51°11.67 2°45.61 7.9 346 14.7 102240 82
2003-09-17 06:56:42 51°11.66 2°45.59 8.4 345 14.7 102240 82
2003-09-17 06:56:48 51°11.66 2°45.56 8.6 345 14.7 102240 82
2003-09-17 06:56:54 51°11.65 2°45.53 8.2 348 14.7 102240 82
2003-09-17 06:56:58 51°11.64 2°45.5 8.9 344 14.7 102240 82
2003-09-17 06:57:02 51°11.63 2°45.48 8.1 347 14.7 102240 82
2003-09-17 06:57:08 51°11.63 2°45.45 8.2 345 14.8 102240 82
2003-09-17 06:57:14 51°11.62 2°45.42 8.1 346 14.8 102240 82
2003-09-17 06:57:18 51°11.61 2°45.39 8 348 14.8 102240 82
2003-09-17 06:57:22 51°11.6 2°45.37 7.9 348 14.8 102240 82
2003-09-17 06:57:28 51°11.6 2°45.34 8.1 348 14.8 102240 82
2003-09-17 06:57:34 51°11.59 2°45.3 8.5 344 14.8 102240 82
2003-09-17 06:57:38 51°11.58 2°45.28 8.8 347 14.8 102240 82
2003-09-17 06:57:42 51°11.57 2°45.26 8.2 348 14.8 102240 82
2003-09-17 06:57:48 51°11.57 2°45.23 8.7 342 14.8 102240 82
2003-09-17 06:57:54 51°11.56 2°45.19 8.4 343 14.8 102240 82
2003-09-17 06:57:58 51°11.55 2°45.17 8.5 347 14.8 102240 82
2003-09-17 06:58:02 51°11.54 2°45.15 8.7 349 14.8 102240 82
2003-09-17 06:58:08 51°11.53 2°45.12 8.3 349 14.8 102240 82
2003-09-17 06:58:14 51°11.53 2°45.08 8.2 348 14.8 102240 82
2003-09-17 06:58:18 51°11.52 2°45.06 8.3 347 14.8 102240 82
2003-09-17 06:58:22 51°11.51 2°45.04 8 346 14.8 102240 82
2003-09-17 06:58:28 51°11.5 2°45 8.4 347 14.8 102240 82
2003-09-17 06:58:32 51°11.5 2°44.98 8 346 14.8 102240 82
2003-09-17 06:58:38 51°11.49 2°44.95 8.3 346 14.8 102240 82
2003-09-17 06:58:42 51°11.48 2°44.92 8.1 348 14.8 102240 82
2003-09-17 06:58:48 51°11.48 2°44.89 7.9 352 14.7 102250 82
2003-09-17 06:58:54 51°11.47 2°44.86 7.2 349 14.7 102250 82
2003-09-17 06:58:58 51°11.46 2°44.84 7.5 352 14.7 102250 81
2003-09-17 06:59:02 51°11.45 2°44.81 7.5 355 14.7 102250 81
2003-09-17 06:59:08 51°11.44 2°44.78 7.2 358 14.7 102250 81
2003-09-17 06:59:14 51°11.44 2°44.75 7.4 354 14.7 102250 81
2003-09-17 06:59:18 51°11.43 2°44.72 7.3 353 14.7 102250 82
2003-09-17 06:59:22 51°11.42 2°44.7 8 346 14.7 102250 82
2003-09-17 06:59:28 51°11.41 2°44.67 7.3 347 14.7 102250 82
2003-09-17 06:59:34 51°11.41 2°44.64 8.2 347 14.7 102250 82
2003-09-17 06:59:38 51°11.4 2°44.61 8.1 349 14.7 102250 82
2003-09-17 06:59:42 51°11.39 2°44.59 7.6 350 14.7 102250 82
2003-09-17 06:59:48 51°11.38 2°44.56 7.7 349 14.7 102240 82
2003-09-17 06:59:54 51°11.38 2°44.52 7.7 346 14.7 102240 82
2003-09-17 06:59:58 51°11.37 2°44.5 7.9 347 14.7 102240 82
2003-09-17 07:00:02 51°11.36 2°44.48 8.3 347 14.7 102240 82
2003-09-17 07:00:08 51°11.35 2°44.45 7.8 344 14.7 102250 82
2003-09-17 07:00:12 51°11.35 2°44.42 8.2 349 14.7 102250 82
2003-09-17 07:00:18 51°11.34 2°44.39 8.2 351 14.8 102240 82
2003-09-17 07:00:22 51°11.33 2°44.37 7.6 350 14.8 102240 82
2003-09-17 07:00:28 51°11.33 2°44.33 7.3 350 14.8 102250 82
2003-09-17 07:00:34 51°11.32 2°44.3 8.3 345 14.8 102250 82
2003-09-17 07:00:38 51°11.31 2°44.28 8.1 347 14.8 102240 82
2003-09-17 07:00:42 51°11.3 2°44.26 8.1 347 14.8 102240 82
2003-09-17 07:00:48 51°11.29 2°44.22 8 347 14.8 102240 82
2003-09-17 07:00:52 51°11.29 2°44.2 7.5 348 14.8 102240 82
2003-09-17 07:00:58 51°11.28 2°44.17 8.2 349 14.8 102250 82
2003-09-17 07:01:02 51°11.27 2°44.14 7.8 346 14.8 102250 82
2003-09-17 07:01:08 51°11.26 2°44.11 8.1 348 14.8 102240 82
2003-09-17 07:01:12 51°11.26 2°44.09 7.9 349 14.8 102240 82
2003-09-17 07:01:18 51°11.25 2°44.05 8.1 346 14.8 102240 82
2003-09-17 07:01:22 51°11.24 2°44.03 8.1 348 14.8 102240 82
2003-09-17 07:01:28 51°11.24 2°44 7.6 349 14.8 102250 82
2003-09-17 07:01:32 51°11.23 2°43.98 8.3 350 14.8 102250 82
2003-09-17 07:01:38 51°11.22 2°43.94 8.6 347 14.8 102240 82
2003-09-17 07:01:42 51°11.21 2°43.92 8.1 347 14.8 102240 82
2003-09-17 07:01:48 51°11.2 2°43.89 8.4 346 14.9 102240 82
2003-09-17 07:01:54 51°11.2 2°43.85 8.1 347 14.9 102240 82
2003-09-17 07:01:58 51°11.19 2°43.83 8.3 347 14.9 102250 82
2003-09-17 07:02:02 51°11.18 2°43.81 8 348 14.9 102250 82
2003-09-17 07:02:08 51°11.17 2°43.78 8.1 346 14.9 102240 82
2003-09-17 07:02:14 51°11.17 2°43.74 8.2 347 14.9 102240 82
2003-09-17 07:02:18 51°11.16 2°43.72 8.1 349 14.8 102250 82
2003-09-17 07:02:22 51°11.15 2°43.7 7.4 347 14.8 102250 82
2003-09-17 07:02:28 51°11.14 2°43.66 7.3 348 14.9 102250 81
2003-09-17 07:02:32 51°11.14 2°43.64 7.3 350 14.9 102250 81
2003-09-17 07:02:38 51°11.13 2°43.61 7.8 347 14.9 102250 81
2003-09-17 07:02:42 51°11.12 2°43.59 7.2 346 14.9 102250 81
2003-09-17 07:02:48 51°11.12 2°43.55 7.1 347 14.9 102250 81
2003-09-17 07:02:54 51°11.11 2°43.52 7.3 349 14.9 102250 81
2003-09-17 07:02:58 51°11.1 2°43.5 7.6 347 14.9 102250 81
2003-09-17 07:03:02 51°11.09 2°43.47 7.1 345 14.9 102250 81
2003-09-17 07:03:08 51°11.09 2°43.44 7.8 345 14.9 102250 81
2003-09-17 07:03:12 51°11.08 2°43.42 7 348 14.9 102250 81
2003-09-17 07:03:18 51°11.07 2°43.38 7.3 346 14.9 102240 81
2003-09-17 07:03:22 51°11.06 2°43.36 7.4 352 14.9 102240 81
2003-09-17 07:03:28 51°11.05 2°43.33 7.2 350 14.9 102250 81
2003-09-17 07:03:34 51°11.04 2°43.3 7.3 351 14.9 102250 81
2003-09-17 07:03:38 51°11.04 2°43.27 7.3 350 14.9 102250 81
2003-09-17 07:03:42 51°11.03 2°43.25 7.4 348 14.9 102250 81
2003-09-17 07:03:48 51°11.02 2°43.22 7.7 350 15 102250 81
2003-09-17 07:03:52 51°11.01 2°43.2 7.4 346 15 102250 81
2003-09-17 07:03:58 51°11 2°43.16 7.7 351 15 102250 82
2003-09-17 07:04:02 51°11 2°43.14 7.5 345 15 102250 82
2003-09-17 07:04:08 51°10.99 2°43.11 7.6 347 15 102250 82
2003-09-17 07:04:14 51°10.98 2°43.08 7.5 351 15 102250 82
2003-09-17 07:04:18 51°10.97 2°43.05 8 352 15 102250 82
2003-09-17 07:04:22 51°10.96 2°43.03 8.3 348 15 102250 82
2003-09-17 07:04:28 51°10.95 2°43 7.8 344 15.1 102250 82
2003-09-17 07:04:34 51°10.94 2°42.97 8.2 344 15.1 102250 82
2003-09-17 07:04:38 51°10.94 2°42.94 7.8 344 15.1 102240 82
2003-09-17 07:04:42 51°10.93 2°42.92 8 346 15.1 102240 82
2003-09-17 07:04:48 51°10.92 2°42.89 8 346 15.1 102240 82
2003-09-17 07:04:54 51°10.91 2°42.86 8.5 346 15.1 102240 82
2003-09-17 07:04:58 51°10.9 2°42.83 8.1 340 15.1 102250 81
2003-09-17 07:05:02 51°10.9 2°42.81 8.1 345 15.1 102250 81
2003-09-17 07:05:08 51°10.89 2°42.78 8.2 347 15.1 102250 81
2003-09-17 07:05:14 51°10.88 2°42.75 7.5 345 15.1 102250 81
2003-09-17 07:05:18 51°10.87 2°42.73 7.6 346 15.1 102240 81
2003-09-17 07:05:22 51°10.86 2°42.7 7.8 340 15.1 102240 81
2003-09-17 07:05:28 51°10.85 2°42.67 7.5 339 15.1 102240 81
2003-09-17 07:05:34 51°10.84 2°42.64 7.8 346 15.1 102240 81
2003-09-17 07:05:38 51°10.84 2°42.62 7.6 344 15.1 102250 81
2003-09-17 07:05:42 51°10.83 2°42.59 7.7 345 15.1 102250 81
2003-09-17 07:05:48 51°10.82 2°42.56 7.9 346 15.1 102240 81
2003-09-17 07:05:54 51°10.81 2°42.53 7.9 344 15.1 102240 81
2003-09-17 07:05:58 51°10.8 2°42.51 7.9 345 15.1 102240 81
2003-09-17 07:06:02 51°10.8 2°42.48 8 349 15.1 102240 81
2003-09-17 07:06:08 51°10.79 2°42.45 7.6 348 15.2 102240 81
2003-09-17 07:06:14 51°10.78 2°42.42 7.4 348 15.2 102240 81
2003-09-17 07:06:18 51°10.77 2°42.4 7.5 348 15.1 102240 81
2003-09-17 07:06:22 51°10.76 2°42.37 7.3 347 15.1 102240 81
2003-09-17 07:06:28 51°10.75 2°42.34 7.5 351 15.2 102250 81
2003-09-17 07:06:32 51°10.75 2°42.32 7.8 349 15.2 102250 81
2003-09-17 07:06:38 51°10.74 2°42.28 7.7 350 15.2 102250 80
2003-09-17 07:06:42 51°10.73 2°42.26 8 347 15.2 102250 80
2003-09-17 07:06:48 51°10.72 2°42.23 7.9 349 15.2 102250 80
2003-09-17 07:06:52 51°10.71 2°42.21 7.6 348 15.2 102250 80
2003-09-17 07:06:58 51°10.7 2°42.17 7.4 345 15.2 102250 81
2003-09-17 07:07:02 51°10.69 2°42.15 7.4 350 15.2 102250 81
2003-09-17 07:07:08 51°10.68 2°42.12 7.3 347 15.2 102240 81
2003-09-17 07:07:12 51°10.68 2°42.1 7.7 346 15.2 102240 81
2003-09-17 07:07:18 51°10.67 2°42.06 7 345 15.2 102240 80
2003-09-17 07:07:22 51°10.66 2°42.04 7.4 347 15.2 102240 80
2003-09-17 07:07:28 51°10.65 2°42.01 7.3 347 15.2 102240 80
2003-09-17 07:07:34 51°10.64 2°41.97 7.7 347 15.2 102240 80
2003-09-17 07:07:38 51°10.64 2°41.95 7.3 347 15.2 102240 80
2003-09-17 07:07:42 51°10.63 2°41.93 8.2 348 15.2 102240 80
2003-09-17 07:07:48 51°10.62 2°41.9 7.8 348 15.3 102240 80
2003-09-17 07:07:54 51°10.61 2°41.86 7.5 348 15.3 102240 80
2003-09-17 07:07:58 51°10.6 2°41.84 7.3 347 15.3 102240 80
2003-09-17 07:08:02 51°10.6 2°41.82 7.6 347 15.3 102240 80
2003-09-17 07:08:08 51°10.59 2°41.79 7.6 343 15.3 102240 80
2003-09-17 07:08:14 51°10.58 2°41.75 7.5 342 15.3 102240 80
2003-09-17 07:08:18 51°10.57 2°41.73 8 349 15.3 102240 80
2003-09-17 07:08:22 51°10.56 2°41.71 7.8 344 15.3 102240 80
2003-09-17 07:08:28 51°10.55 2°41.68 7.9 344 15.3 102240 80
2003-09-17 07:08:34 51°10.54 2°41.64 7.8 342 15.3 102240 80
2003-09-17 07:08:38 51°10.54 2°41.62 8.4 344 15.3 102240 80
2003-09-17 07:08:42 51°10.53 2°41.6 7.8 341 15.3 102240 80
2003-09-17 07:08:48 51°10.52 2°41.57 8 346 15.4 102240 80
2003-09-17 07:08:54 51°10.51 2°41.53 8.3 338 15.4 102240 80
2003-09-17 07:08:58 51°10.5 2°41.51 8.5 339 15.4 102240 80
2003-09-17 07:09:02 51°10.5 2°41.49 7.9 345 15.4 102240 80
2003-09-17 07:09:08 51°10.49 2°41.46 8.6 344 15.4 102230 80
2003-09-17 07:09:14 51°10.48 2°41.42 8.8 340 15.4 102230 80
2003-09-17 07:09:18 51°10.47 2°41.4 8.5 337 15.4 102230 80
2003-09-17 07:09:22 51°10.46 2°41.38 8.3 339 15.4 102230 80
2003-09-17 07:09:28 51°10.46 2°41.35 8.3 338 15.4 102240 79
2003-09-17 07:09:34 51°10.45 2°41.31 8.1 340 15.4 102240 79
2003-09-17 07:09:38 51°10.44 2°41.29 8.2 338 15.4 102240 79
2003-09-17 07:09:42 51°10.43 2°41.27 8.6 340 15.4 102240 79
2003-09-17 07:09:48 51°10.42 2°41.24 8.4 343 15.4 102230 79
2003-09-17 07:09:54 51°10.41 2°41.2 8.6 338 15.4 102230 79
2003-09-17 07:09:58 51°10.41 2°41.18 8.5 340 15.4 102230 79
2003-09-17 07:10:02 51°10.4 2°41.16 8.2 341 15.4 102230 79
2003-09-17 07:10:08 51°10.39 2°41.13 8 339 15.4 102230 79
2003-09-17 07:10:14 51°10.38 2°41.09 8.2 340 15.4 102230 79
2003-09-17 07:10:18 51°10.37 2°41.07 7.9 342 15.4 102230 79
2003-09-17 07:10:22 51°10.37 2°41.05 8.1 339 15.4 102230 79
2003-09-17 07:10:28 51°10.36 2°41.02 7.9 342 15.4 102240 79
2003-09-17 07:10:34 51°10.35 2°40.98 7.9 338 15.4 102240 79
2003-09-17 07:10:38 51°10.34 2°40.96 7.8 338 15.4 102240 79
2003-09-17 07:10:42 51°10.34 2°40.94 8 340 15.4 102240 79
2003-09-17 07:10:48 51°10.33 2°40.91 8.2 340 15.4 102230 79
2003-09-17 07:10:54 51°10.32 2°40.87 7.9 338 15.4 102230 79
2003-09-17 07:10:58 51°10.31 2°40.85 7.6 339 15.4 102240 79
2003-09-17 07:11:02 51°10.3 2°40.83 6.9 339 15.4 102240 79
2003-09-17 07:11:08 51°10.29 2°40.8 8 341 15.4 102240 79
2003-09-17 07:11:12 51°10.29 2°40.77 8 340 15.4 102240 79
2003-09-17 07:11:18 51°10.28 2°40.74 7.8 341 15.4 102240 79
2003-09-17 07:11:22 51°10.27 2°40.72 7.5 342 15.4 102240 79
2003-09-17 07:11:28 51°10.26 2°40.69 7.6 343 15.4 102240 79
2003-09-17 07:11:32 51°10.25 2°40.66 7.6 345 15.4 102240 79
2003-09-17 07:11:38 51°10.24 2°40.63 7.5 345 15.4 102240 79
2003-09-17 07:11:42 51°10.24 2°40.61 7.3 344 15.4 102240 79
2003-09-17 07:11:48 51°10.23 2°40.57 7.1 347 15.4 102240 79
2003-09-17 07:11:52 51°10.22 2°40.55 7.5 344 15.4 102240 79
2003-09-17 07:11:58 51°10.21 2°40.52 7.5 351 15.4 102240 79
2003-09-17 07:12:02 51°10.2 2°40.5 7.6 347 15.4 102240 79
2003-09-17 07:12:08 51°10.19 2°40.46 7.4 342 15.4 102240 79
2003-09-17 07:12:14 51°10.18 2°40.43 7.5 342 15.4 102240 79
2003-09-17 07:12:18 51°10.18 2°40.41 7.6 341 15.4 102240 79
2003-09-17 07:12:22 51°10.17 2°40.38 7.7 341 15.4 102240 79
2003-09-17 07:12:28 51°10.16 2°40.35 8 342 15.4 102240 79
2003-09-17 07:12:34 51°10.15 2°40.32 7.8 342 15.4 102240 79
2003-09-17 07:12:38 51°10.14 2°40.3 8.2 344 15.4 102240 80
2003-09-17 07:12:42 51°10.14 2°40.27 8.1 340 15.4 102240 80
2003-09-17 07:12:48 51°10.13 2°40.24 8 339 15.4 102240 79
2003-09-17 07:12:54 51°10.11 2°40.21 8.1 340 15.4 102240 79
2003-09-17 07:12:58 51°10.11 2°40.19 8.1 340 15.4 102240 79
2003-09-17 07:13:02 51°10.1 2°40.17 8.9 338 15.4 102240 79
2003-09-17 07:13:08 51°10.09 2°40.14 8.6 342 15.4 102240 79
2003-09-17 07:13:14 51°10.07 2°40.11 8.9 339 15.4 102240 79
2003-09-17 07:13:18 51°10.06 2°40.08 8.7 339 15.4 102240 79
2003-09-17 07:13:22 51°10.06 2°40.06 8.9 337 15.4 102240 79
2003-09-17 07:13:28 51°10.04 2°40.03 9.2 334 15.4 102240 80
2003-09-17 07:13:32 51°10.03 2°40.01 8.7 335 15.4 102240 80
2003-09-17 07:13:38 51°10.02 2°39.98 8.9 334 15.4 102230 79
2003-09-17 07:13:42 51°10.01 2°39.96 8.4 334 15.4 102230 79
2003-09-17 07:13:48 51°10 2°39.93 8.3 336 15.4 102230 79
2003-09-17 07:13:54 51°9.99 2°39.9 8.2 335 15.4 102230 79
2003-09-17 07:13:58 51°9.98 2°39.88 8.9 332 15.4 102230 79
2003-09-17 07:14:02 51°9.97 2°39.85 8.4 332 15.4 102230 79
2003-09-17 07:14:08 51°9.96 2°39.82 8.6 336 15.4 102230 79
2003-09-17 07:14:14 51°9.95 2°39.79 8.4 336 15.4 102230 79
2003-09-17 07:14:18 51°9.94 2°39.77 8.5 336 15.4 102230 79
2003-09-17 07:14:22 51°9.93 2°39.75 8 337 15.4 102230 79
2003-09-17 07:14:28 51°9.92 2°39.72 8.9 338 15.4 102230 79
2003-09-17 07:14:34 51°9.91 2°39.68 8.8 336 15.4 102230 79
2003-09-17 07:14:38 51°9.9 2°39.66 8.3 340 15.4 102240 79
2003-09-17 07:14:42 51°9.89 2°39.64 8.9 341 15.4 102240 79
2003-09-17 07:14:48 51°9.88 2°39.61 8.5 337 15.4 102230 79
2003-09-17 07:14:52 51°9.87 2°39.59 8.8 337 15.4 102230 79
2003-09-17 07:14:58 51°9.86 2°39.56 8.8 339 15.4 102230 79
2003-09-17 07:15:02 51°9.85 2°39.53 9.4 338 15.4 102230 79
2003-09-17 07:15:08 51°9.84 2°39.5 8.9 336 15.4 102230 80
2003-09-17 07:15:14 51°9.83 2°39.47 9.5 336 15.4 102230 80
2003-09-17 07:15:18 51°9.82 2°39.45 9.4 338 15.4 102230 80
2003-09-17 07:15:22 51°9.81 2°39.43 9.5 339 15.4 102230 80
2003-09-17 07:15:28 51°9.8 2°39.39 8.7 334 15.4 102230 80
2003-09-17 07:15:32 51°9.79 2°39.37 8.9 337 15.4 102230 80
2003-09-17 07:15:38 51°9.78 2°39.34 8.6 336 15.5 102220 80
2003-09-17 07:15:42 51°9.78 2°39.32 8.9 334 15.5 102220 80
2003-09-17 07:15:48 51°9.76 2°39.29 9.6 333 15.4 102230 79
2003-09-17 07:15:52 51°9.76 2°39.27 9.3 336 15.4 102230 79
2003-09-17 07:15:58 51°9.75 2°39.23 9.3 339 15.4 102230 79
2003-09-17 07:16:02 51°9.74 2°39.21 9.6 335 15.4 102230 79
2003-09-17 07:16:08 51°9.73 2°39.18 9.6 337 15.4 102230 79
2003-09-17 07:16:14 51°9.71 2°39.15 9.2 339 15.4 102230 79
2003-09-17 07:16:18 51°9.71 2°39.13 9.8 332 15.5 102230 79
2003-09-17 07:16:22 51°9.7 2°39.1 10.9 334 15.5 102230 79
2003-09-17 07:16:28 51°9.69 2°39.07 9.7 336 15.5 102230 79
2003-09-17 07:16:32 51°9.68 2°39.05 9.8 339 15.5 102230 79
2003-09-17 07:16:38 51°9.67 2°39.02 9.5 339 15.5 102220 79
2003-09-17 07:16:42 51°9.66 2°39 9.8 336 15.5 102220 79
2003-09-17 07:16:48 51°9.65 2°38.96 10 335 15.5 102230 79
2003-09-17 07:16:54 51°9.64 2°38.93 9.7 338 15.5 102230 79
2003-09-17 07:16:58 51°9.63 2°38.91 9.1 338 15.5 102220 79
2003-09-17 07:17:02 51°9.62 2°38.89 9.3 338 15.5 102220 79
2003-09-17 07:17:08 51°9.61 2°38.86 8.9 341 15.6 102230 79
2003-09-17 07:17:14 51°9.6 2°38.82 9.2 336 15.6 102230 79
2003-09-17 07:17:18 51°9.59 2°38.8 4.4 340 15.6 102220 79
2003-09-17 07:17:22 51°9.58 2°38.78 9.3 337 15.6 102220 79
2003-09-17 07:17:28 51°9.57 2°38.75 9.2 334 15.6 102220 79
2003-09-17 07:17:34 51°9.56 2°38.71 9.5 334 15.6 102220 79
2003-09-17 07:17:38 51°9.55 2°38.69 9.4 336 15.6 102220 79
2003-09-17 07:17:42 51°9.55 2°38.67 9.3 338 15.6 102220 79
2003-09-17 07:17:48 51°9.53 2°38.64 9.5 333 15.6 102230 79
2003-09-17 07:17:54 51°9.52 2°38.6 9.2 339 15.6 102230 79
2003-09-17 07:17:58 51°9.51 2°38.58 8.8 336 15.7 102230 78
2003-09-17 07:18:02 51°9.51 2°38.56 9.7 330 15.7 102230 78
2003-09-17 07:18:08 51°9.49 2°38.53 9.7 334 15.7 102230 78
2003-09-17 07:18:12 51°9.49 2°38.51 9.3 337 15.7 102230 78
2003-09-17 07:18:18 51°9.47 2°38.47 9.4 334 15.7 102230 78
2003-09-17 07:18:22 51°9.47 2°38.45 9.2 335 15.7 102230 78
2003-09-17 07:18:28 51°9.46 2°38.42 9.8 336 15.7 102220 78
2003-09-17 07:18:34 51°9.44 2°38.39 9.1 335 15.7 102220 78
2003-09-17 07:18:38 51°9.44 2°38.37 9.2 335 15.7 102220 78
2003-09-17 07:18:44 51°9.42 2°38.33 8.5 336 15.7 102220 78
2003-09-17 07:18:48 51°9.42 2°38.31 8.4 337 15.7 102230 78
2003-09-17 07:18:54 51°9.41 2°38.28 9.7 336 15.7 102230 78
2003-09-17 07:18:58 51°9.4 2°38.26 9.3 337 15.7 102220 78
2003-09-17 07:19:02 51°9.39 2°38.24 9.2 337 15.7 102220 78
2003-09-17 07:19:08 51°9.38 2°38.2 9.3 335 15.7 102230 78
2003-09-17 07:19:14 51°9.37 2°38.17 9.7 335 15.7 102230 78
2003-09-17 07:19:18 51°9.36 2°38.15 9.8 339 15.7 102230 78
2003-09-17 07:19:22 51°9.35 2°38.13 9.8 337 15.7 102230 78
2003-09-17 07:19:28 51°9.34 2°38.09 9.8 338 15.7 102220 78
2003-09-17 07:19:34 51°9.33 2°38.06 8.9 340 15.7 102220 78
2003-09-17 07:19:38 51°9.32 2°38.04 9 339 15.7 102220 78
2003-09-17 07:19:42 51°9.31 2°38.02 9.5 336 15.7 102220 78
2003-09-17 07:19:48 51°9.3 2°37.99 9.7 337 15.7 102220 78
2003-09-17 07:19:54 51°9.29 2°37.95 9.7 335 15.7 102220 78
2003-09-17 07:19:58 51°9.28 2°37.93 9.4 335 15.7 102220 78
2003-09-17 07:20:02 51°9.27 2°37.91 9.7 335 15.7 102220 78
2003-09-17 07:20:08 51°9.26 2°37.88 9.4 333 15.7 102220 78
2003-09-17 07:20:14 51°9.25 2°37.84 9.2 338 15.7 102220 78
2003-09-17 07:20:18 51°9.24 2°37.82 9.1 336 15.7 102220 78
2003-09-17 07:20:22 51°9.24 2°37.8 9.2 336 15.7 102220 78
2003-09-17 07:20:28 51°9.22 2°37.77 9.7 335 15.7 102220 78
2003-09-17 07:20:32 51°9.22 2°37.75 9.5 335 15.7 102220 78
2003-09-17 07:20:38 51°9.2 2°37.71 9.1 335 15.7 102220 78
2003-09-17 07:20:42 51°9.2 2°37.69 9.3 332 15.7 102220 78
2003-09-17 07:20:48 51°9.19 2°37.66 9.2 334 15.6 102220 78
2003-09-17 07:20:54 51°9.18 2°37.63 8.6 332 15.6 102220 78
2003-09-17 07:20:58 51°9.17 2°37.61 8.2 328 15.6 102230 78
2003-09-17 07:21:02 51°9.16 2°37.59 7.4 325 15.6 102230 78
2003-09-17 07:21:08 51°9.16 2°37.56 7.4 323 15.6 102230 77
2003-09-17 07:21:14 51°9.15 2°37.54 6.4 316 15.6 102230 77
2003-09-17 07:21:18 51°9.15 2°37.52 6.2 318 15.6 102230 77
2003-09-17 07:21:22 51°9.14 2°37.51 5.8 310 15.6 102230 77
2003-09-17 07:21:28 51°9.14 2°37.49 5.9 309 15.6 102230 78
2003-09-17 07:21:34 51°9.14 2°37.46 5.1 305 15.6 102230 78
2003-09-17 07:21:38 51°9.14 2°37.45 5.1 305 15.6 102230 78
2003-09-17 07:21:42 51°9.14 2°37.44 4.8 288 15.6 102230 78
2003-09-17 07:21:48 51°9.14 2°37.42 4.2 289 15.6 102230 78
2003-09-17 07:21:54 51°9.14 2°37.4 4 280 15.6 102230 78
2003-09-17 07:21:58 51°9.14 2°37.39 3.8 279 15.6 102240 78
2003-09-17 07:22:08 51°9.14 2°37.37 3.6 273 15.6 102240 78
2003-09-17 07:22:14 51°9.14 2°37.35 3.6 268 15.6 102240 78
2003-09-17 07:22:18 51°9.14 2°37.34 3.8 265 15.6 102240 78
2003-09-17 07:22:22 51°9.14 2°37.34 3.5 262 15.6 102240 78
2003-09-17 07:22:28 51°9.15 2°37.32 2.8 259 15.6 102250 78
2003-09-17 07:22:34 51°9.15 2°37.31 2.3 255 15.6 102250 78
2003-09-17 07:22:38 51°9.15 2°37.3 2.1 253 15.6 102240 78
2003-09-17 07:22:42 51°9.15 2°37.3 2.5 255 15.6 102240 78
2003-09-17 07:22:48 51°9.15 2°37.29 2.4 248 15.6 102240 78
2003-09-17 07:22:54 51°9.16 2°37.28 1.9 254 15.6 102240 78
2003-09-17 07:22:58 51°9.16 2°37.27 1.9 252 15.6 102240 78
2003-09-17 07:23:02 51°9.16 2°37.26 2.8 242 15.6 102240 78
2003-09-17 07:23:08 51°9.16 2°37.26 2.9 239 15.5 102240 78
2003-09-17 07:23:14 51°9.16 2°37.25 3.6 241 15.5 102240 78
2003-09-17 07:23:18 51°9.16 2°37.25 3.7 240 15.5 102250 78
2003-09-17 07:23:22 51°9.16 2°37.24 4.2 239 15.5 102250 78
2003-09-17 07:23:28 51°9.16 2°37.24 4.5 235 15.5 102250 78
2003-09-17 07:23:32 51°9.16 2°37.24 4.3 237 15.5 102250 78
2003-09-17 07:23:38 51°9.16 2°37.24 4.2 235 15.5 102250 78
2003-09-17 07:23:42 51°9.16 2°37.24 4.4 233 15.5 102250 78
2003-09-17 07:23:48 51°9.16 2°37.24 4.2 232 15.6 102250 78
2003-09-17 07:23:54 51°9.16 2°37.24 4.4 236 15.6 102250 78
2003-09-17 07:23:58 51°9.16 2°37.24 4.1 233 15.6 102250 79
2003-09-17 07:24:04 51°9.16 2°37.24 3.8 236 15.6 102250 79
2003-09-17 07:24:08 51°9.16 2°37.24 4.3 235 15.6 102250 79
2003-09-17 07:24:14 51°9.16 2°37.24 4.3 235 15.6 102250 79
2003-09-17 07:24:18 51°9.16 2°37.24 4.3 235 15.6 102250 79
2003-09-17 07:24:24 51°9.16 2°37.24 3.8 235 15.6 102250 79
2003-09-17 07:24:28 51°9.16 2°37.23 3.7 233 15.6 102240 79
2003-09-17 07:24:34 51°9.16 2°37.23 3.5 233 15.6 102240 79
2003-09-17 07:24:38 51°9.16 2°37.23 4 235 15.6 102250 79
2003-09-17 07:24:44 51°9.16 2°37.23 4.2 237 15.6 102250 79
2003-09-17 07:24:48 51°9.16 2°37.23 4 237 15.6 102250 79
2003-09-17 07:24:54 51°9.16 2°37.23 4.2 238 15.6 102250 79
2003-09-17 07:24:58 51°9.16 2°37.23 4.3 239 15.6 102240 79
2003-09-17 07:25:04 51°9.16 2°37.23 3.7 243 15.6 102240 79
2003-09-17 07:25:10 51°9.16 2°37.22 4.1 240 15.6 102250 79
2003-09-17 07:25:14 51°9.16 2°37.22 4 242 15.6 102250 79
2003-09-17 07:25:18 51°9.16 2°37.22 3.8 241 15.6 102250 79
2003-09-17 07:25:24 51°9.16 2°37.22 3.5 245 15.6 102250 79
2003-09-17 07:25:28 51°9.16 2°37.22 4.1 241 15.6 102240 79
2003-09-17 07:25:34 51°9.16 2°37.22 4.3 243 15.6 102240 79
2003-09-17 07:25:38 51°9.16 2°37.22 3.2 246 15.6 102250 79
2003-09-17 07:25:44 51°9.16 2°37.21 3.5 247 15.6 102250 79
2003-09-17 07:25:48 51°9.16 2°37.21 4.1 245 15.6 102250 79
2003-09-17 07:25:54 51°9.16 2°37.21 2.4 255 15.6 102250 79
2003-09-17 07:25:58 51°9.16 2°37.21 2.6 251 15.6 102250 79
2003-09-17 07:26:02 51°9.16 2°37.21 2.9 251 15.6 102250 79
2003-09-17 07:26:08 51°9.16 2°37.2 2.6 252 15.6 102250 79
2003-09-17 07:26:14 51°9.16 2°37.2 3.6 249 15.6 102250 79
2003-09-17 07:26:18 51°9.16 2°37.2 2.6 254 15.6 102240 79
2003-09-17 07:26:24 51°9.16 2°37.2 2.5 256 15.6 102240 79
2003-09-17 07:26:28 51°9.16 2°37.2 2.4 255 15.6 102250 80
2003-09-17 07:26:34 51°9.16 2°37.2 3 260 15.6 102250 80
2003-09-17 07:26:38 51°9.17 2°37.19 3.1 257 15.6 102250 80
2003-09-17 07:26:42 51°9.17 2°37.19 4.4 265 15.6 102250 80
2003-09-17 07:26:48 51°9.17 2°37.19 4.2 262 15.6 102250 80
2003-09-17 07:26:54 51°9.17 2°37.19 3 257 15.6 102250 80
2003-09-17 07:26:58 51°9.17 2°37.19 3.4 258 15.7 102250 80
2003-09-17 07:27:02 51°9.17 2°37.18 2.7 255 15.7 102250 80
2003-09-17 07:27:08 51°9.17 2°37.18 2.6 255 15.7 102250 80
2003-09-17 07:27:14 51°9.17 2°37.18 2.7 257 15.7 102250 80
2003-09-17 07:27:18 51°9.17 2°37.18 3.2 256 15.7 102250 80
2003-09-17 07:27:22 51°9.17 2°37.18 2.4 253 15.7 102250 80
2003-09-17 07:27:28 51°9.17 2°37.17 2.4 254 15.7 102250 80
2003-09-17 07:27:32 51°9.17 2°37.17 2.5 253 15.7 102250 80
2003-09-17 07:27:38 51°9.17 2°37.17 2.7 255 15.7 102250 80
2003-09-17 07:27:42 51°9.17 2°37.17 3.6 259 15.7 102250 80
2003-09-17 07:27:48 51°9.17 2°37.17 2.9 255 15.7 102240 80
2003-09-17 07:27:54 51°9.17 2°37.16 2.3 255 15.7 102240 80
2003-09-17 07:27:58 51°9.17 2°37.16 3.1 257 15.7 102250 80
2003-09-17 07:28:02 51°9.17 2°37.16 2.8 257 15.7 102250 80
2003-09-17 07:28:08 51°9.17 2°37.16 3.3 258 15.7 102250 80
2003-09-17 07:28:12 51°9.17 2°37.16 3 253 15.7 102250 80
2003-09-17 07:28:18 51°9.17 2°37.15 3.2 257 15.7 102250 80
2003-09-17 07:28:26 51°9.17 2°37.15 2.4 255 15.7 102250 80
2003-09-17 07:28:32 51°9.17 2°37.15 3.2 257 15.7 102250 80
2003-09-17 07:28:36 51°9.17 2°37.15 3.7 262 15.8 102240 80
2003-09-17 07:28:42 51°9.17 2°37.14 4.5 272 15.8 102240 80
2003-09-17 07:28:46 51°9.17 2°37.14 3.9 286 15.8 102250 80
2003-09-17 07:28:52 51°9.17 2°37.13 3.8 289 15.8 102250 80
2003-09-17 07:28:56 51°9.17 2°37.13 4.2 303 15.8 102250 81
2003-09-17 07:29:02 51°9.17 2°37.12 4.2 305 15.8 102250 81
2003-09-17 07:29:06 51°9.17 2°37.12 4.6 311 15.8 102250 80
2003-09-17 07:29:12 51°9.17 2°37.11 4.8 319 15.8 102250 80
2003-09-17 07:29:18 51°9.16 2°37.11 4.6 315 15.8 102250 80
2003-09-17 07:29:22 51°9.16 2°37.1 4.8 328 15.8 102250 80
2003-09-17 07:29:26 51°9.16 2°37.1 4.8 332 15.8 102240 80
2003-09-17 07:29:32 51°9.16 2°37.09 5.2 336 15.8 102240 80
2003-09-17 07:29:36 51°9.15 2°37.09 5.4 341 15.9 102250 81
2003-09-17 07:29:42 51°9.15 2°37.08 4.9 347 15.9 102250 81
2003-09-17 07:29:46 51°9.14 2°37.08 5.6 351 15.9 102240 80
2003-09-17 07:29:52 51°9.14 2°37.08 4.9 357 15.9 102240 80
2003-09-17 07:29:58 51°9.13 2°37.08 5 2 15.9 102240 80
2003-09-17 07:30:02 51°9.13 2°37.07 5.3 6 15.9 102240 80
2003-09-17 07:30:06 51°9.13 2°37.07 5.1 8 15.9 102240 80
2003-09-17 07:30:12 51°9.12 2°37.07 4.9 10 15.9 102240 80
2003-09-17 07:30:18 51°9.12 2°37.08 4.9 13 15.9 102240 80
2003-09-17 07:30:22 51°9.11 2°37.08 4.8 20 15.9 102240 80
2003-09-17 07:30:26 51°9.11 2°37.08 5.3 24 15.9 102240 80
2003-09-17 07:30:32 51°9.1 2°37.09 4.9 28 15.9 102240 80
2003-09-17 07:30:38 51°9.1 2°37.09 5.3 37 15.9 102250 80
2003-09-17 07:30:46 51°9.1 2°37.1 5 40 15.9 102250 80
2003-09-17 07:30:52 51°9.09 2°37.11 6.1 54 15.9 102250 80
2003-09-17 07:30:58 51°9.09 2°37.12 5.3 61 15.9 102240 80
2003-09-17 07:31:02 51°9.09 2°37.12 4.2 60 15.9 102240 80
2003-09-17 07:31:06 51°9.09 2°37.13 4.6 62 15.9 102240 79
2003-09-17 07:31:12 51°9.09 2°37.13 3.6 72 15.9 102240 79
2003-09-17 07:31:18 51°9.09 2°37.14 3.9 78 15.9 102240 79
2003-09-17 07:31:22 51°9.09 2°37.15 4.1 83 15.9 102240 79
2003-09-17 07:31:26 51°9.09 2°37.15 3.6 80 15.9 102250 79
2003-09-17 07:31:32 51°9.1 2°37.16 3.9 90 15.9 102250 79
2003-09-17 07:31:38 51°9.1 2°37.16 3.9 88 15.9 102250 79
2003-09-17 07:31:42 51°9.1 2°37.16 3.5 93 15.9 102250 79
2003-09-17 07:31:46 51°9.1 2°37.17 3.4 100 15.9 102250 79
2003-09-17 07:31:52 51°9.1 2°37.17 3.5 102 15.9 102250 79
2003-09-17 07:31:56 51°9.1 2°37.17 3.5 105 16 102250 79
2003-09-17 07:32:02 51°9.1 2°37.18 3.4 104 16 102250 79
2003-09-17 07:32:06 51°9.11 2°37.18 3.3 105 16 102250 79
2003-09-17 07:32:12 51°9.11 2°37.18 3.8 102 16 102250 79
2003-09-17 07:32:18 51°9.11 2°37.18 3.3 104 16 102250 79
2003-09-17 07:32:28 51°9.11 2°37.18 3.7 111 16 102250 79
2003-09-17 07:32:32 51°9.11 2°37.18 3.4 100 16 102250 79
2003-09-17 07:32:38 51°9.11 2°37.18 3.4 98 16 102250 79
2003-09-17 07:32:42 51°9.11 2°37.18 3.2 97 16 102250 79
2003-09-17 07:32:46 51°9.11 2°37.19 3.3 96 16 102250 79
2003-09-17 07:32:54 51°9.11 2°37.19 3.1 97 16 102250 79
2003-09-17 07:32:58 51°9.11 2°37.19 2.9 98 16 102250 79
2003-09-17 07:33:02 51°9.11 2°37.19 3.4 97 16 102250 79
2003-09-17 07:33:08 51°9.11 2°37.19 3.3 95 16 102250 79
2003-09-17 07:33:14 51°9.11 2°37.19 3.3 94 16 102250 79
2003-09-17 07:33:18 51°9.11 2°37.19 3.3 96 16.1 102250 79
2003-09-17 07:33:22 51°9.11 2°37.19 3.4 98 16.1 102250 79
2003-09-17 07:33:28 51°9.11 2°37.19 3.1 97 16.1 102250 79
2003-09-17 07:33:32 51°9.11 2°37.19 3.2 92 16.1 102250 79
2003-09-17 07:33:38 51°9.12 2°37.19 3.4 87 16.1 102250 79
2003-09-17 07:33:42 51°9.12 2°37.2 3.8 86 16.1 102250 79
2003-09-17 07:33:48 51°9.12 2°37.2 3.4 85 16.1 102250 79
2003-09-17 07:33:52 51°9.12 2°37.2 3.4 83 16.1 102250 79
2003-09-17 07:33:58 51°9.12 2°37.2 3.2 83 16.1 102250 79
2003-09-17 07:34:08 51°9.12 2°37.2 3.6 90 16.1 102250 79
2003-09-17 07:34:12 51°9.12 2°37.2 3 94 16.1 102250 79
2003-09-17 07:34:18 51°9.12 2°37.2 3.4 100 16.1 102250 79
2003-09-17 07:34:22 51°9.12 2°37.2 3.6 86 16.1 102250 79
2003-09-17 07:34:28 51°9.12 2°37.2 3.4 89 16.1 102250 79
2003-09-17 07:34:34 51°9.12 2°37.2 3.4 91 16.1 102250 79
2003-09-17 07:34:38 51°9.12 2°37.2 3.2 92 16.1 102250 79
2003-09-17 07:34:44 51°9.12 2°37.2 3.2 91 16.1 102250 79
2003-09-17 07:34:48 51°9.12 2°37.2 2.9 93 16.1 102250 79
2003-09-17 07:34:54 51°9.12 2°37.2 3.2 91 16.1 102250 79
2003-09-17 07:34:58 51°9.12 2°37.2 3.3 94 16.1 102250 79
2003-09-17 07:35:02 51°9.12 2°37.2 3.4 92 16.1 102250 79
2003-09-17 07:35:08 51°9.12 2°37.2 3.3 95 16.1 102250 79
2003-09-17 07:35:12 51°9.12 2°37.2 3.1 88 16.1 102250 79
2003-09-17 07:35:18 51°9.12 2°37.2 3.2 86 16.1 102250 79
2003-09-17 07:35:22 51°9.12 2°37.2 2.8 93 16.1 102250 79
2003-09-17 07:35:28 51°9.12 2°37.2 2.9 92 16.1 102250 79
2003-09-17 07:35:34 51°9.12 2°37.2 3.1 85 16.1 102250 79
2003-09-17 07:35:38 51°9.12 2°37.2 3.1 87 16.1 102250 79
2003-09-17 07:35:42 51°9.12 2°37.2 3.1 82 16.1 102250 79
2003-09-17 07:35:48 51°9.12 2°37.21 3.1 85 16.1 102250 79
2003-09-17 07:35:54 51°9.12 2°37.21 3 90 16.1 102250 79
2003-09-17 07:35:58 51°9.12 2°37.21 3.1 88 16.1 102250 79
2003-09-17 07:36:02 51°9.12 2°37.21 2.4 78 16.1 102250 79
2003-09-17 07:36:08 51°9.12 2°37.21 2.2 77 16.1 102250 79
2003-09-17 07:36:12 51°9.12 2°37.21 2.4 77 16.1 102250 79
2003-09-17 07:36:18 51°9.12 2°37.21 2.4 78 16.1 102250 79
2003-09-17 07:36:22 51°9.12 2°37.21 3.3 84 16.1 102250 79
2003-09-17 07:36:28 51°9.12 2°37.21 2.6 80 16.1 102250 79
2003-09-17 07:36:34 51°9.12 2°37.21 2.9 81 16.1 102250 79
2003-09-17 07:36:38 51°9.12 2°37.21 2.7 80 16.1 102250 79
2003-09-17 07:36:42 51°9.12 2°37.21 3.1 82 16.1 102250 79
2003-09-17 07:36:48 51°9.12 2°37.21 2.4 76 16.1 102250 79
2003-09-17 07:36:54 51°9.12 2°37.21 2.7 69 16.1 102250 79
2003-09-17 07:36:58 51°9.12 2°37.21 2.9 80 16.1 102250 79
2003-09-17 07:37:02 51°9.12 2°37.21 2.7 80 16.1 102250 79
2003-09-17 07:37:08 51°9.13 2°37.21 2.3 73 16.1 102250 79
2003-09-17 07:37:14 51°9.13 2°37.21 2.8 79 16.1 102250 79
2003-09-17 07:37:18 51°9.13 2°37.21 3.2 84 16.1 102250 79
2003-09-17 07:37:22 51°9.13 2°37.21 2.8 81 16.1 102250 79
2003-09-17 07:37:28 51°9.13 2°37.21 3 81 16.1 102250 79
2003-09-17 07:37:32 51°9.13 2°37.21 2.9 79 16.1 102250 79
2003-09-17 07:37:38 51°9.13 2°37.21 2.9 78 16.1 102250 79
2003-09-17 07:37:42 51°9.13 2°37.21 1.3 78 16.1 102250 79
2003-09-17 07:37:48 51°9.13 2°37.21 2.8 80 16.1 102250 79
2003-09-17 07:37:54 51°9.13 2°37.21 2.3 76 16.1 102250 79
2003-09-17 07:37:58 51°9.13 2°37.2 2.5 79 16.1 102250 79
2003-09-17 07:38:02 51°9.13 2°37.2 2.5 71 16.1 102250 79
2003-09-17 07:38:08 51°9.13 2°37.2 2.9 69 16 102250 79
2003-09-17 07:38:14 51°9.13 2°37.2 2.3 79 16 102250 79
2003-09-17 07:38:18 51°9.13 2°37.2 2.7 80 16.1 102250 79
2003-09-17 07:38:24 51°9.13 2°37.2 3 82 16.1 102250 79
2003-09-17 07:38:28 51°9.13 2°37.2 3.1 82 16.1 102250 79
2003-09-17 07:38:32 51°9.13 2°37.2 2.9 80 16.1 102250 79
2003-09-17 07:38:38 51°9.13 2°37.2 2.8 80 16 102250 79
2003-09-17 07:38:42 51°9.13 2°37.2 2.8 79 16 102250 79
2003-09-17 07:38:48 51°9.13 2°37.2 2.6 80 16 102250 79
2003-09-17 07:38:54 51°9.13 2°37.2 2.6 82 16 102250 79
2003-09-17 07:38:58 51°9.13 2°37.2 2.6 82 16 102250 79
2003-09-17 07:39:04 51°9.13 2°37.2 2.8 80 16 102250 79
2003-09-17 07:39:08 51°9.13 2°37.2 2.4 72 16 102250 79
2003-09-17 07:39:14 51°9.13 2°37.2 3.1 84 16 102250 79
2003-09-17 07:39:18 51°9.13 2°37.2 2.6 82 16 102250 79
2003-09-17 07:39:22 51°9.13 2°37.2 2.5 80 16 102250 79
2003-09-17 07:39:28 51°9.13 2°37.2 2.9 82 16.1 102250 79
2003-09-17 07:39:34 51°9.13 2°37.2 2.4 80 16.1 102250 79
2003-09-17 07:39:38 51°9.13 2°37.2 2.7 79 16.1 102250 79
2003-09-17 07:39:42 51°9.13 2°37.2 2.5 79 16.1 102250 79
2003-09-17 07:39:48 51°9.13 2°37.2 2.4 76 16.1 102250 79
2003-09-17 07:39:54 51°9.13 2°37.2 2.7 80 16.1 102250 79
2003-09-17 07:39:58 51°9.13 2°37.2 2.2 78 16.1 102250 79
2003-09-17 07:40:02 51°9.13 2°37.2 2.8 69 16.1 102250 79
2003-09-17 07:40:08 51°9.13 2°37.2 2.6 80 16 102250 79
2003-09-17 07:40:12 51°9.13 2°37.2 2.6 81 16 102250 79
2003-09-17 07:40:18 51°9.13 2°37.2 2.6 80 16 102250 79
2003-09-17 07:40:22 51°9.13 2°37.2 2.4 80 16 102250 79
2003-09-17 07:40:28 51°9.13 2°37.2 1.6 78 16 102250 79
2003-09-17 07:40:34 51°9.13 2°37.19 2.3 81 16 102250 79
2003-09-17 07:40:38 51°9.13 2°37.19 2.4 81 16 102250 79
2003-09-17 07:40:44 51°9.13 2°37.19 2.4 78 16 102250 79
2003-09-17 07:40:48 51°9.13 2°37.19 2.3 78 16 102250 79
2003-09-17 07:40:54 51°9.13 2°37.19 2.2 72 16 102250 79
2003-09-17 07:40:58 51°9.13 2°37.19 2.2 77 16 102250 79
2003-09-17 07:41:02 51°9.13 2°37.19 2.4 73 16 102250 79
2003-09-17 07:41:08 51°9.13 2°37.19 2.4 72 16 102250 79
2003-09-17 07:41:14 51°9.13 2°37.19 2.6 78 16 102250 79
2003-09-17 07:41:18 51°9.13 2°37.19 2.5 77 16 102250 79
2003-09-17 07:41:22 51°9.13 2°37.19 2.8 80 16 102250 79
2003-09-17 07:41:28 51°9.13 2°37.19 2.7 80 16 102250 79
2003-09-17 07:41:34 51°9.13 2°37.19 2.8 80 16 102250 79
2003-09-17 07:41:38 51°9.13 2°37.19 2.7 81 16 102250 79
2003-09-17 07:41:42 51°9.13 2°37.19 2.2 78 16 102250 79
2003-09-17 07:41:48 51°9.13 2°37.19 2.4 79 16 102250 79
2003-09-17 07:41:54 51°9.13 2°37.19 2.6 81 16 102250 79
2003-09-17 07:41:58 51°9.13 2°37.19 2.2 76 16 102250 79
2003-09-17 07:42:02 51°9.13 2°37.19 2.2 78 16 102250 79
2003-09-17 07:42:08 51°9.13 2°37.18 2.3 74 16 102250 79
2003-09-17 07:42:14 51°9.13 2°37.18 2.5 72 16 102250 79
2003-09-17 07:42:18 51°9.13 2°37.18 2.4 77 16 102250 79
2003-09-17 07:42:22 51°9.13 2°37.18 2.7 80 16 102250 79
2003-09-17 07:42:28 51°9.13 2°37.18 2.3 79 16 102250 79
2003-09-17 07:42:34 51°9.13 2°37.18 2.3 77 16 102250 79
2003-09-17 07:42:38 51°9.13 2°37.18 2.3 77 16 102250 79
2003-09-17 07:42:42 51°9.13 2°37.18 2 75 16 102250 79
2003-09-17 07:42:48 51°9.13 2°37.18 2.3 72 16.1 102250 79
2003-09-17 07:42:54 51°9.13 2°37.18 2.2 71 16.1 102250 79
2003-09-17 07:42:58 51°9.13 2°37.18 2.1 72 16 102250 79
2003-09-17 07:43:02 51°9.13 2°37.18 2.2 72 16 102250 79
2003-09-17 07:43:08 51°9.13 2°37.18 2.2 76 16 102250 79
2003-09-17 07:43:12 51°9.13 2°37.18 2.4 78 16 102250 79
2003-09-17 07:43:18 51°9.13 2°37.18 2.1 78 16 102250 79
2003-09-17 07:43:22 51°9.13 2°37.18 2.2 78 16 102250 79
2003-09-17 07:43:28 51°9.13 2°37.18 2.2 79 16.1 102250 79
2003-09-17 07:43:34 51°9.13 2°37.17 2.5 78 16.1 102250 79
2003-09-17 07:43:38 51°9.13 2°37.17 2.3 75 16.1 102250 79
2003-09-17 07:43:42 51°9.13 2°37.17 2.4 73 16.1 102250 79
2003-09-17 07:43:48 51°9.13 2°37.17 2.4 70 16.1 102250 79
2003-09-17 07:43:52 51°9.13 2°37.17 2.4 70 16.1 102250 79
2003-09-17 07:43:58 51°9.13 2°37.17 2.2 72 16.1 102250 79
2003-09-17 07:44:02 51°9.13 2°37.17 2.2 72 16.1 102250 79
2003-09-17 07:44:08 51°9.13 2°37.17 2 77 16.1 102250 79
2003-09-17 07:44:14 51°9.13 2°37.17 2.1 76 16.1 102250 79
2003-09-17 07:44:18 51°9.13 2°37.17 2.2 76 16.1 102250 79
2003-09-17 07:44:22 51°9.13 2°37.17 2.3 76 16.1 102250 79
2003-09-17 07:44:28 51°9.13 2°37.17 2.5 78 16.1 102250 79
2003-09-17 07:44:32 51°9.13 2°37.17 2.3 69 16.1 102250 79
2003-09-17 07:44:38 51°9.13 2°37.17 2.3 76 16.1 102250 79
2003-09-17 07:44:42 51°9.13 2°37.17 2.4 69 16.1 102250 79
2003-09-17 07:44:48 51°9.13 2°37.17 2.5 74 16.1 102250 79
2003-09-17 07:44:52 51°9.13 2°37.16 2.1 78 16.1 102250 79
2003-09-17 07:44:58 51°9.13 2°37.16 2.3 78 16.1 102250 79
2003-09-17 07:45:02 51°9.13 2°37.16 2.3 76 16.1 102250 79
2003-09-17 07:45:08 51°9.13 2°37.16 2.4 74 16.1 102250 79
2003-09-17 07:45:14 51°9.13 2°37.16 2.2 72 16.1 102250 79
2003-09-17 07:45:18 51°9.13 2°37.16 2.4 67 16.1 102250 79
2003-09-17 07:45:24 51°9.13 2°37.16 2.2 71 16.1 102250 79
2003-09-17 07:45:28 51°9.13 2°37.16 2.6 74 16.1 102250 78